Location: Quispamsis
(45.4447°N, 65.9414°W)
Time: 14:21:07
(UTC-04:00)

Daily predictions for brighter satellites

Satellite Brightness Start Highest point End
(mag) Time Altitude Azimuth Time Altitude Azimuth Time Altitude Azimuth
CZ-3A R/B 3.0 16:53:25 10° SSW 16:57:11 66° SE 17:14:40 10° NE
BREEZE M DEB (TANK) 2.6 17:04:23 10° WNW 17:06:45 43° N 17:11:42 10° ENE
PAYLOAD A 4.0 17:05:37 10° SSE 17:10:18 56° ENE 17:15:11 10° N
MSX 4.5 17:09:34 10° SE 17:14:37 33° ENE 17:19:41 10° N
SPOT 3 Rocket 3.8 17:11:47 10° SE 17:16:43 47° ENE 17:21:41 10° N
Meteor 1-27 Rocket 4.0 17:12:51 10° SSW 17:18:43 83° W 17:24:29 10° N
USA 234 3.4 17:14:34 10° NE 17:21:08 75° SE 17:27:40 10° SW
SL-16 R/B 4.3 17:17:35 10° N 17:22:44 29° WNW 17:27:54 10° WSW
CORIOLIS 4.4 17:19:26 10° SE 17:24:37 48° ENE 17:29:47 10° N
BREEZE-M DEB (TANK) 1.7 17:24:03 10° SW 17:26:25 54° SSE 17:28:23 12° ENE
CZ-4 R/B 1.4 17:23:04 10° SSE 17:27:12 65° ENE 17:31:20 10° N
SJ-12 4.0 17:24:21 10° SSE 17:28:20 55° ENE 17:32:23 10° N
Cosmos 372 Rocket 4.0 17:23:50 10° S 17:29:02 69° ESE 17:34:17 10° NNE
COSMOS 2487 4.4 17:29:28 10° NNE 17:31:01 12° NE 17:31:41 12° ENE
USA 32 4.4 17:26:14 10° SSE 17:31:08 44° E 17:36:05 10° NNE
Okean 3 3.6 17:30:10 10° S 17:34:28 80° W 17:38:45 10° N
IDEFIX/ARIANE 42P 2.6 17:29:49 10° SSE 17:34:57 63° ENE 17:40:05 10° N
Okean 1 Rocket 4.2 17:31:49 10° NNW 17:35:58 47° W 17:40:08 10° SSW
APEX 4.4 17:29:21 10° SSW 17:35:59 81° WNW 17:41:11 10° NNE
Cosmos 1975 3.9 17:33:22 10° NNE 17:36:41 24° ENE 17:39:58 10° SE
Cosmos 2278 Rocket 3.2 17:32:24 10° SSE 17:36:56 26° ESE 17:41:07 12° NE
MOS 1 4.2 17:31:45 10° SSE 17:37:24 75° ENE 17:43:03 10° NNW
COSMOS 2406 3.5 17:33:21 10° NNW 17:39:04 75° WSW 17:44:47 10° SSE
ATLAS 2AS CENTAUR R/B 3.0 17:32:49 10° NW 17:41:00 73° NE 17:48:39 10° SE
Cosmos 1544 Rocket 3.7 17:37:13 10° N 17:41:36 53° ENE 17:45:58 10° SSE
COSMO-SKYMED 1 3.8 17:38:37 10° NE 17:41:57 22° E 17:45:20 10° SE
BREEZE-M DEB (TANK) 4.5 17:35:00 10° W 17:45:16 61° NNW 17:48:08 16° ENE
Cosmos 494 Rocket 4.1 17:40:11 10° NNW 17:45:18 51° ENE 17:50:25 10° SE
Cosmos 1975 Rocket 3.1 17:42:50 10° S 17:47:09 85° W 17:51:31 10° N
Cosmos 1125 Rocket 4.1 17:42:19 10° SW 17:47:33 59° WNW 17:52:50 10° NNE
Meteor 1-5 Rocket 4.2 17:44:02 10° NNW 17:49:26 83° W 17:54:59 10° S
Thor Agena Rocket 3.5 17:46:57 10° NNE 17:52:10 75° ESE 17:57:24 10° S
USA 116 4.5 17:47:09 10° NNE 17:52:35 82° ESE 17:57:52 10° SSW
ISS -3.3 17:54:16 10° SW 17:57:33 78° SSE 17:59:20 25° ENE
Cosmos 2082 Rocket 3.0 17:54:34 10° N 17:59:27 28° NE 18:03:10 15° ESE
Genesis I 4.0 17:56:35 10° NNW 18:00:08 31° NE 18:01:48 22° E
Cosmos 1833 Rocket 3.6 17:58:38 10° N 18:03:24 27° NE 18:05:51 20° E
Cosmos 1536 Rocket 3.8 17:59:27 10° SSE 18:03:44 47° E 18:08:02 10° NNE
Cosmos 1484 Rocket 2.9 18:00:11 10° SSE 18:03:48 46° ENE 18:07:23 10° N
Cosmos 2251 Rocket 3.5 17:59:38 10° NNW 18:05:02 85° ENE 18:10:22 10° SSE
CZ-3B DEB 2.4 18:04:51 10° SSW 18:08:38 63° SE 18:15:07 19° ENE
YAOGAN 1 3.1 18:06:56 10° S 18:11:13 61° W 18:15:31 10° NNW
SL-8 Rocket 4.3 18:07:42 10° NNW 18:13:51 69° W 18:19:56 10° S
FALCON 9 R/B 4.5 17:49:52 10° WSW 18:15:21 43° S 18:21:50 15° ESE
Cosmos 375 4.4 18:12:56 10° NW 18:17:37 66° NE 18:20:22 19° SE
SL-27 R/B 3.7 18:16:11 10° NNW 18:19:43 46° WSW 18:23:13 10° S
CZ-2C R/B 3.4 18:15:14 10° S 18:20:03 50° W 18:25:03 10° NNW
Cosmos 1500 3.2 18:16:37 10° N 18:20:23 54° ENE 18:24:08 10° SSE
Cosmos 1238 Rocket 2.2 18:17:54 10° SSW 18:20:50 74° W 18:22:50 19° N
OPS 8737 4.2 18:17:46 10° SSW 18:21:00 63° SE 18:21:37 49° ENE
Cosmos 2366 rocket 4.2 18:18:08 10° N 18:24:31 78° W 18:30:48 10° S
Meteor 1-28 Rocket 4.1 18:25:16 30° ESE 18:25:16 30° ESE 18:28:00 10° SSE
Cosmos 2263 Rocket 4.3 18:20:55 10° W 18:24:57 20° NW 18:29:00 10° N
SL-24 DEB 4.2 18:20:51 10° N 18:25:39 81° E 18:30:22 10° S
SMAP 4.5 18:23:16 10° SSW 18:27:39 40° W 18:32:03 10° NNW
Cosmos 2218 Rocket 4.4 18:21:26 10° NNW 18:27:40 65° W 18:33:48 10° S
SKYMED 2 3.5 18:27:15 19° NNE 18:30:17 69° ESE 18:34:36 10° S
Cosmos 1455 Rocket 3.6 18:26:51 10° NNW 18:31:11 59° W 18:35:31 10° S
Okean 1 3.2 18:28:28 10° S 18:32:31 85° E 18:35:16 20° N
Okean 1-7 Rocket 4.4 18:28:38 10° SSE 18:31:59 33° ESE 18:31:59 33° ESE
Meteor 1-18 Rocket 4.3 18:29:04 10° SSW 18:34:42 79° W 18:40:29 10° N
Cosmos 1934 Rocket 4.4 18:30:37 10° N 18:36:16 36° ENE 18:41:58 10° SE
Abrixas 3.3 18:35:45 10° WNW 18:38:04 43° NW 18:38:04 43° NW
Timation 2 Rocket 4.1 18:32:50 10° NNW 18:39:36 64° ENE 18:46:25 10° SE
GEOS 3 Rocket 3.6 18:37:03 10° SE 18:42:11 79° SW 18:47:20 10° NW
Cosmos 1809 Rocket 4.4 18:37:02 10° N 18:43:15 86° E 18:49:22 10° S
Cosmos 1812 3.7 18:41:30 10° SSW 18:45:14 46° WNW 18:48:33 13° N
Cosmos 1844 Rocket 3.7 18:44:50 10° SW 18:50:09 43° WNW 18:54:44 14° NNE
Cosmos 2239 Rocket 4.4 18:44:36 10° N 18:50:46 59° ENE 18:56:50 10° SSE
Cosmos 1346 Rocket 2.6 18:47:11 10° S 18:51:06 87° E 18:51:17 81° NNE
Cosmos 1821 Rocket 3.8 18:53:39 10° N 18:59:45 65° E 19:05:46 10° SSE
SL-8 R/B 3.7 18:56:06 10° SW 19:00:50 66° SSE 19:00:58 65° SE
USA 234 3.9 19:01:00 29° NNE 19:03:56 47° NNW 19:10:07 10° W
Cosmos 2297 3.6 18:59:32 10° S 19:05:05 63° ESE 19:05:19 62° E
COSMOS 2487 3.8 19:03:23 10° NNW 19:05:47 37° NW 19:05:47 37° NW
NOSS 3-4 (A) 3.8 19:09:48 10° NNW 19:16:37 57° NE 19:17:06 56° ENE
NOSS 3-4 (C) 3.8 19:09:54 10° NNW 19:16:43 56° NE 19:17:09 56° ENE
COSMO-SKYMED 1 3.9 19:15:50 21° NNW 19:18:14 38° WNW 19:22:14 10° SW
Cosmos 2278 Rocket 2.8 19:15:10 10° SW 19:20:40 52° WNW 19:23:00 32° N
Meteor 1-19 Rocket 4.2 19:16:56 10° S 19:22:44 87° W 19:24:08 55° N
FengYun 1-2 T 4.5 19:24:13 56° N 19:24:13 56° N 19:28:42 10° NNW
Nadezhda 3 Rocket 4.3 19:17:41 10° SSW 19:23:50 64° W 19:30:05 10° N
NOSS 3-3 (A) 4.2 19:18:49 10° SW 19:25:03 69° NW 19:26:54 48° NNE
NOSS 3-3 (C) 4.2 19:18:55 10° SW 19:25:09 69° NW 19:26:59 48° NNE
ISS -0.2 19:31:17 10° WNW 19:32:01 15° WNW 19:32:01 15° WNW
Cosmos 2082 Rocket 2.8 19:38:20 10° NW 19:43:49 52° WSW 19:45:09 43° SSW
Cosmos 1833 Rocket 3.2 19:42:09 10° NNW 19:47:38 57° WSW 19:47:38 57° WSW
CZ-3B DEB 4.0 20:38:15 10° W 20:43:53 51° NNW 20:43:53 51° NNW
